Tracking 22440 objects as of 27-Feb-2021
HD Live streaming from Space Station
objects crossing your sky now

XSAT

Track XSAT now!
10-day predictions
XSAT is classified as:


NORAD ID: 37389
Int'l Code: 2011-015C
Perigee: 808.5 km
Apogee: 826.9 km
Inclination: 98.4 °
Period: 101.1 minutes
Semi major axis: 7188 km
RCS: 0.4978 m2 (medium)
Launch date: April 20, 2011
Source: Singapore (SING)
Launch site: SRIHARIKOTA (SRI)

X-SAT, Singapore's first national satellite, has a multi-spectral camera and will demonstrate space-based remote sensing and image processing technologies.
aabbcc
Your satellite tracking list
Your tracking list is empty




NASA's NSSDC Master Catalog

Two Line Element Set (TLE):
1 37389U 11015C   21058.36928208 -.00000038  00000-0  17210-5 0  9990
2 37389  98.4001 109.1149 0012860 263.7646  96.2069 14.24386377512577
Source of the keplerian elements: AFSPC